Flight Track Log - Related Links

Times and Time Zones

All times are in EDT time to prevent confusion due to time zone crossing. See the SWA3943 flight status page for this flight to view local times or setup timezone preferences in your user account.

Time Position Orientation Groundspeed Altitude Reporting Facility
EDT Latitude Longitude Course Direction KTS MPH feet Rate Location/Type
Tue 08:25:23 PM 39.9908 -82.8353 99° East 171 197 2,700  Level Indianapolis Center
Tue 08:25:51 PM 39.9903 -82.8069 91° East 184 212 3,500 2,360 Climbing Indianapolis Center
Tue 08:26:52 PM 39.9914 -82.7208 89° East 229 264 6,200 3,171 Climbing Indianapolis Center
Tue 08:27:54 PM 39.9886 -82.6194 92° East 274 315 10,000 3,435 Climbing Indianapolis Center
Tue 08:28:56 PM 39.9892 -82.4858 90° East 319 367 13,300 3,317 Climbing Indianapolis Center
Tue 08:29:57 PM 39.9922 -82.3600 88° East 343 395 16,800 2,829 Climbing Indianapolis Center
Tue 08:30:59 PM 39.9950 -82.2278 88° East 358 412 19,100 1,659 Climbing Indianapolis Center
Tue 08:32:00 PM 39.9983 -82.0822 88° East 395 455 20,200 1,024 Climbing Indianapolis Center
Tue 08:33:02 PM 40.0011 -81.9347 89° East 403 464 21,200 1,355 Climbing Indianapolis Center
Tue 08:34:04 PM 40.0050 -81.7853 88° East 408 470 23,000 1,951 Climbing Indianapolis Center
Tue 08:35:05 PM 39.9978 -81.6406 94° East 402 463 25,200 2,244 Climbing Indianapolis Center
Tue 08:36:07 PM 39.9800 -81.4939 99° East 406 467 27,600 1,854 Climbing Indianapolis Center
Tue 08:37:08 PM 39.9597 -81.3275 99° East 411 473 29,000 683 Climbing Indianapolis Center
Tue 08:38:10 PM 39.9400 -81.1703 99° East 427 491 29,000  Level Indianapolis Center
Tue 08:38:33 PM 39.9347 -81.1003 96° East 429 494 29,000  Level Cleveland Center
Tue 08:39:33 PM 39.9144 -80.9375 99° East 436 502 29,000  Level Cleveland Center
Tue 08:40:33 PM 39.8919 -80.7753 100° East 449 517 29,000  Level Cleveland Center
Tue 08:41:34 PM 39.8692 -80.6100 100° East 454 522 29,000  Level Cleveland Center
Tue 08:42:33 PM 39.8503 -80.4478 99° East 454 522 29,000  Level Cleveland Center
Tue 08:43:33 PM 39.8269 -80.2831 100° East 454 522 29,000  Level Cleveland Center
Tue 08:45:15 PM 39.7944 -80.0342 100° East 436 502 29,000  Level Washington Center
Tue 08:46:13 PM 39.7731 -79.8733 100° East 436 502 29,000  Level Washington Center
Tue 08:47:14 PM 39.7494 -79.7128 101° East 441 507 29,000  Level Washington Center
Tue 08:48:14 PM 39.7300 -79.5525 99° East 451 519 29,000  Level Washington Center
Tue 08:49:15 PM 39.7058 -79.3919 101° East 451 519 29,000 -744 Level Washington Center
Tue 08:50:15 PM 39.6839 -79.2289 100° East 451 519 27,500 -2,034 Descending Washington Center
Tue 08:51:13 PM 39.6633 -79.0797 100° East 443 510 25,000 -1,261 Descending Washington Center
Tue 08:52:14 PM 39.6242 -78.9161 107° East 427 491 25,000  Level Washington Center
Tue 08:53:15 PM 39.5928 -78.7667 105° East 427 491 25,000 -504 Level Washington Center
Tue 08:54:13 PM 39.5569 -78.6142 107° East 432 497 24,000 -1,664 Descending Washington Center
Tue 08:55:14 PM 39.5253 -78.4675 106° East 432 497 21,700 -2,529 Descending Washington Center
Tue 08:56:14 PM 39.4931 -78.3239 106° East 425 489 18,900 -2,874 Descending Washington Center
Tue 08:57:13 PM 39.4608 -78.1828 106° East 420 483 16,000 -1,966 Descending Washington Center
Tue 08:58:13 PM 39.4492 -78.0425 96° East 412 474 15,000 -496 Descending Washington Center
Tue 08:59:14 PM 39.4478 -77.9056 91° East 396 456 15,000  Level Washington Center
Tue 09:00:14 PM 39.4481 -77.7686 90° East 385 443 15,000 -446 Level Washington Center
Tue 09:01:15 PM 39.4464 -77.6314 91° East 385 443 14,100 -1,613 Descending Washington Center
Tue 09:02:13 PM 39.4464 -77.4969 90° East 379 436 11,800 -1,576 Descending Washington Center
Tue 09:03:13 PM 39.4461 -77.3842 90° East 350 403 11,000 -608 Descending Washington Center
Tue 09:03:32 PM 39.4500 -77.3500 82° East 295 339 11,000 -405 Level Potomac TRACON
Tue 09:04:27 PM 39.4500 -77.2500 90° East 292 336 10,500 -1,252 Descending Potomac TRACON
Tue 09:05:27 PM 39.4000 -77.1833 134° Southeast 282 325 8,600 -2,000 Descending Potomac TRACON
Tue 09:06:27 PM 39.3500 -77.1167 134° Southeast 269 310 6,500 -2,000 Descending Potomac TRACON
Tue 09:07:21 PM 39.3000 -77.0500 134° Southeast 255 293 4,800 -1,316 Descending Potomac TRACON
Tue 09:08:21 PM 39.2667 -77.0000 131° Southeast 215 247 4,000 -645 Descending Potomac TRACON
Tue 09:09:22 PM 39.2167 -76.9500 142° Southeast 169 194 3,500 -496 Descending Potomac TRACON
Tue 09:10:22 PM 39.2000 -76.9167 123° Southeast 160 184 3,000 -421 Descending Potomac TRACON
Tue 09:11:16 PM 39.1833 -76.8667 113° Southeast 155 178 2,700 -579 Descending Potomac TRACON
Tue 09:12:16 PM 39.1833 -76.8000 90° East 151 174 1,900 -709 Descending Potomac TRACON
Tue 09:13:23 PM 39.1833 -76.7500 90° East 113 130 1,200 -595 Descending Potomac TRACON
Tue 09:14:17 PM 39.1833 -76.7167 90° East 115 132 700 -556 Descending Potomac TRACON
Tue 09:16:00 PM 39.1667 -76.6667 98° East  Level FlightAware Approximate
Tue 09:23:00 PM 39.1754 -76.6683 98° East  Level Estimated
Tue 09:24:00 PM 39.1754 -76.6683 98° East  Level Estimated
Tue 09:25:00 PM 39.1754 -76.6683 98° East  Level Estimated
Tue 09:26:00 PM 39.1754 -76.6683 98° East  Level Estimated

Login

Don't have an account? Register now (free) for customized features, flight alerts, and more!